STARLINK-1175 (45097 NORAD) Tracking and Keplerian Element Data

This shows tracking and keplerian element data for the satellite.

Feedback or suggestion? Click here.




ElementValue
Catalog45097
NameSTARLINK-1175
Epoch Orbit177
Epoch Day52.91667824
Epoch Year2020
RAAN119.5114
Inclination52.9969
Eccentricity0.0001272
Argument of Perigee23.7703
Mean Anonmoly120.6598
Mean Motion15.73171867
Decay Rate0.00014336
L11 45097U 20006BF 20052.91667824 .00014336 00000-0 10649-3 0 9995
L22 45097 52.9969 119.5114 0001272 23.7703 120.6598 15.73171867 1775

Live tracking and technical data element details for STARLINK-1175 (NORAD 45097). STARLINK-1175 can be tracked NOW for your location showing map with azimuth and elevation plus other details from your city location.

Track the satellite on the map from your city or location and see movement details for azimuth, elevation, latitude, longitude, range, height, and movement on the map or in text.







IsCatalogInMostPopularTable: catalog: 45097, numindb: 7
Update: records affected: 1



GetName: 45097 STARLINK-1175

Hit Count: updated at: Wed, 26 Feb 2020 15:49:06 GMT